BAW947L LDSP-EGLL

Flight info

Callsign BAW947L
Flight time N/A
Altitude 36000
Route ZDA1W ZDA DCT ROTAR DCT BORMI DCT RESIA DCT ELMUR DCT RIPUS DCT DITON DCT HOC DCT LUL DCT RLP DCT ROTSI DCT KOTUN DCT NINAL DCT ABNUR DCT DIMAL DCT ALESO ALESO1H
Aircraft A21N/M-SDE3FGHIJ1LRWXYZ/SB1G1

Departure

Time N/A
Airport Split Saint Jerome Airport (LDSP)

Arrival

Time 2026-05-03 22:13
Airport London Heathrow Airport (EGLL)
Time Latitude Longitude Altitude Speed Heading
2026-05-03 20:15 44.00725 15.19512 29537 ft 434 kts 311°
2026-05-03 20:15 44.02642 15.16277 30021 ft 432 kts 311°
2026-05-03 20:15 44.04514 15.13113 30442 ft 429 kts 311°
2026-05-03 20:15 44.06407 15.09904 30828 ft 428 kts 311°
2026-05-03 20:16 44.08292 15.06712 31215 ft 426 kts 311°
2026-05-03 20:16 44.10170 15.03540 31581 ft 425 kts 311°
2026-05-03 20:16 44.12043 15.00359 31951 ft 424 kts 311°
2026-05-03 20:16 44.13904 14.97194 32288 ft 422 kts 311°
2026-05-03 20:17 44.15761 14.94037 32658 ft 420 kts 310°
2026-05-03 20:17 44.17582 14.90932 33022 ft 418 kts 310°
2026-05-03 20:17 44.19420 14.87798 33375 ft 417 kts 310°
2026-05-03 20:17 44.21252 14.84672 33714 ft 415 kts 310°
2026-05-03 20:18 44.23069 14.81565 34014 ft 414 kts 310°
2026-05-03 20:18 44.24891 14.78449 34123 ft 414 kts 310°
2026-05-03 20:18 44.26711 14.75334 34122 ft 414 kts 310°
2026-05-03 20:19 44.30344 14.69104 34099 ft 414 kts 310°
2026-05-03 20:19 44.33953 14.62913 34094 ft 414 kts 310°
2026-05-03 20:20 44.37581 14.56671 34095 ft 414 kts 310°
2026-05-03 20:20 44.41208 14.50428 34092 ft 414 kts 310°
2026-05-03 20:21 44.44831 14.44168 34091 ft 414 kts 310°
2026-05-03 20:21 44.48422 14.37944 34086 ft 414 kts 310°
2026-05-03 20:22 44.52031 14.31674 34090 ft 413 kts 310°
2026-05-03 20:22 44.55633 14.25406 34090 ft 413 kts 310°
2026-05-03 20:23 44.59232 14.19124 34091 ft 413 kts 310°
2026-05-03 20:23 44.62802 14.12878 34092 ft 413 kts 310°
2026-05-03 20:24 44.66388 14.06599 34090 ft 410 kts 310°
2026-05-03 20:24 44.69946 14.00353 34103 ft 409 kts 310°
2026-05-03 20:25 44.73495 13.94104 34109 ft 410 kts 310°
2026-05-03 20:25 44.77030 13.87873 34111 ft 410 kts 310°
2026-05-03 20:26 44.80587 13.81589 34111 ft 410 kts 309°
2026-05-03 20:26 44.84134 13.75292 34106 ft 410 kts 309°
2026-05-03 20:27 44.87678 13.68998 34106 ft 410 kts 309°
2026-05-03 20:27 44.91202 13.62735 34104 ft 410 kts 309°
2026-05-03 20:28 44.94744 13.56424 34104 ft 410 kts 309°
2026-05-03 20:28 44.98283 13.50099 34103 ft 411 kts 309°
2026-05-03 20:29 45.01832 13.43741 34093 ft 413 kts 309°
2026-05-03 20:29 45.05367 13.37392 34097 ft 414 kts 309°
2026-05-03 20:30 45.08919 13.30998 34091 ft 414 kts 309°
2026-05-03 20:30 45.12470 13.24589 34097 ft 414 kts 309°
2026-05-03 20:31 45.16020 13.18176 34095 ft 414 kts 309°
2026-05-03 20:31 45.19547 13.11767 34091 ft 416 kts 308°
2026-05-03 20:32 45.23114 13.05300 34096 ft 416 kts 308°
2026-05-03 20:32 45.26612 12.98755 34096 ft 416 kts 304°
2026-05-03 20:33 45.29678 12.91783 34095 ft 417 kts 302°
2026-05-03 20:33 45.32697 12.84815 34094 ft 417 kts 302°
2026-05-03 20:34 45.35737 12.77779 34093 ft 418 kts 302°
2026-05-03 20:34 45.38794 12.70743 34089 ft 418 kts 302°
2026-05-03 20:35 45.41823 12.63736 34086 ft 418 kts 302°
2026-05-03 20:35 45.44864 12.56678 34085 ft 418 kts 302°
2026-05-03 20:36 45.47904 12.49602 34083 ft 418 kts 301°
2026-05-03 20:36 45.50943 12.42508 34084 ft 420 kts 301°
2026-05-03 20:37 45.53961 12.35454 34083 ft 420 kts 301°
2026-05-03 20:37 45.56996 12.28339 34083 ft 420 kts 301°
2026-05-03 20:38 45.60007 12.21253 34108 ft 420 kts 301°
2026-05-03 20:38 45.63039 12.14106 34113 ft 421 kts 300°
2026-05-03 20:39 45.66072 12.06938 34113 ft 422 kts 300°
2026-05-03 20:39 45.69084 11.99802 34113 ft 422 kts 300°
2026-05-03 20:40 45.72111 11.92616 34125 ft 422 kts 300°
2026-05-03 20:40 45.75133 11.85419 34130 ft 422 kts 300°
2026-05-03 20:41 45.78166 11.78174 34138 ft 425 kts 299°
2026-05-03 20:41 45.81174 11.70948 34153 ft 425 kts 299°
2026-05-03 20:42 45.84203 11.63655 34151 ft 426 kts 299°
2026-05-03 20:42 45.87241 11.56360 34179 ft 426 kts 299°
2026-05-03 20:43 45.90258 11.49117 34176 ft 425 kts 299°
2026-05-03 20:43 45.93282 11.41805 34184 ft 426 kts 299°
2026-05-03 20:44 45.96301 11.34472 34187 ft 426 kts 299°
2026-05-03 20:44 45.99295 11.27191 34197 ft 426 kts 299°
2026-05-03 20:45 46.02302 11.19857 34215 ft 426 kts 299°
2026-05-03 20:45 46.05304 11.12472 34241 ft 427 kts 298°
2026-05-03 20:46 46.08242 11.05082 34236 ft 428 kts 298°
2026-05-03 20:46 46.11214 10.97643 34244 ft 428 kts 298°
2026-05-03 20:47 46.14188 10.90210 34243 ft 428 kts 298°
2026-05-03 20:47 46.17134 10.82804 34246 ft 428 kts 298°
2026-05-03 20:48 46.20095 10.75326 34242 ft 430 kts 297°
2026-05-03 20:48 46.23060 10.67833 34222 ft 430 kts 297°
2026-05-03 20:49 46.26021 10.60320 34211 ft 430 kts 297°
2026-05-03 20:49 46.28951 10.52857 34202 ft 430 kts 297°
2026-05-03 20:50 46.31906 10.45327 34203 ft 431 kts 296°
2026-05-03 20:50 46.34858 10.37777 34187 ft 431 kts 296°
2026-05-03 20:51 46.37780 10.30273 34159 ft 431 kts 296°
2026-05-03 20:51 46.40722 10.22709 34171 ft 431 kts 296°
2026-05-03 20:52 46.43656 10.15141 34177 ft 431 kts 296°
2026-05-03 20:52 46.46586 10.07569 34205 ft 430 kts 296°
2026-05-03 20:53 46.50088 10.00560 34203 ft 435 kts 308°
2026-05-03 20:53 46.54103 9.93998 34208 ft 434 kts 308°
2026-05-03 20:54 46.58112 9.87423 34193 ft 435 kts 308°
2026-05-03 20:54 46.64071 9.77570 34195 ft 434 kts 308°
2026-05-03 20:55 46.68067 9.70951 34172 ft 434 kts 308°
2026-05-03 20:55 46.72052 9.64335 34147 ft 434 kts 308°
2026-05-03 20:56 46.76007 9.57743 34121 ft 435 kts 308°
2026-05-03 20:56 46.79992 9.51094 34098 ft 435 kts 308°
2026-05-03 20:57 46.83971 9.44436 34082 ft 435 kts 308°
2026-05-03 20:57 46.87944 9.37758 34081 ft 435 kts 307°
2026-05-03 20:58 46.91895 9.31114 34086 ft 435 kts 307°
2026-05-03 20:58 46.95866 9.24426 34074 ft 435 kts 307°
2026-05-03 20:59 46.99829 9.17717 34087 ft 435 kts 307°
2026-05-03 20:59 47.03763 9.11043 34080 ft 436 kts 307°
2026-05-03 21:00 47.07059 9.05444 34090 ft 436 kts 307°
2026-05-03 21:00 47.11696 8.97559 34088 ft 437 kts 307°
2026-05-03 21:01 47.15453 8.90651 34080 ft 432 kts 298°
2026-05-03 21:01 47.17819 8.82606 34082 ft 428 kts 287°
2026-05-03 21:02 47.19866 8.74397 34081 ft 428 kts 287°
2026-05-03 21:02 47.21938 8.66201 34089 ft 427 kts 287°
2026-05-03 21:03 47.24006 8.58016 34082 ft 426 kts 287°
2026-05-03 21:03 47.26055 8.49885 34090 ft 426 kts 287°
2026-05-03 21:04 47.28114 8.41704 34076 ft 426 kts 287°
2026-05-03 21:04 47.30165 8.33540 34077 ft 428 kts 287°
2026-05-03 21:05 47.32216 8.25318 34084 ft 427 kts 286°
2026-05-03 21:05 47.34252 8.17108 34075 ft 426 kts 286°
2026-05-03 21:06 47.36273 8.08932 34076 ft 426 kts 286°
2026-05-03 21:06 47.38298 8.00723 34071 ft 426 kts 286°
2026-05-03 21:07 47.40318 7.92489 34069 ft 426 kts 286°
2026-05-03 21:07 47.42334 7.84248 34065 ft 426 kts 286°
2026-05-03 21:08 47.44333 7.76065 34062 ft 426 kts 286°
2026-05-03 21:08 47.46329 7.67822 34055 ft 426 kts 285°
2026-05-03 21:09 47.47861 7.59406 34055 ft 424 kts 280°
2026-05-03 21:09 47.49259 7.51008 34075 ft 423 kts 280°
2026-05-03 21:10 47.50657 7.42536 34067 ft 424 kts 280°
2026-05-03 21:10 47.52057 7.34064 34051 ft 424 kts 280°
2026-05-03 21:11 47.53455 7.25652 34052 ft 424 kts 280°
2026-05-03 21:11 47.54850 7.17169 34048 ft 424 kts 279°
2026-05-03 21:12 47.56229 7.08692 34057 ft 424 kts 279°
2026-05-03 21:12 47.57607 7.00209 34047 ft 424 kts 279°
2026-05-03 21:13 47.58968 6.91774 34042 ft 424 kts 279°
2026-05-03 21:13 47.60342 6.83261 34044 ft 424 kts 279°
2026-05-03 21:14 47.61705 6.74734 34040 ft 425 kts 279°
2026-05-03 21:14 47.63052 6.66250 34041 ft 426 kts 279°
2026-05-03 21:15 47.64414 6.57696 34039 ft 427 kts 279°
2026-05-03 21:15 47.65763 6.49123 34049 ft 427 kts 279°
2026-05-03 21:16 47.67096 6.40596 34066 ft 426 kts 279°
2026-05-03 21:16 47.68429 6.32019 34075 ft 426 kts 279°
2026-05-03 21:17 47.69789 6.24937 34068 ft 431 kts 283°
2026-05-03 21:17 47.71899 6.15049 34049 ft 432 kts 283°
2026-05-03 21:18 47.73705 6.06543 34042 ft 432 kts 283°
2026-05-03 21:18 47.75507 5.98032 34030 ft 432 kts 283°
2026-05-03 21:19 47.77296 5.89524 34039 ft 431 kts 283°
2026-05-03 21:19 47.79064 5.81066 34016 ft 430 kts 283°
2026-05-03 21:20 47.80833 5.72561 34009 ft 430 kts 283°
2026-05-03 21:20 47.82598 5.64055 34008 ft 430 kts 283°
2026-05-03 21:21 47.84357 5.55542 34012 ft 430 kts 283°
2026-05-03 21:21 47.86089 5.47084 34030 ft 429 kts 283°
2026-05-03 21:22 47.87827 5.38592 34007 ft 428 kts 283°
2026-05-03 21:22 47.89570 5.30105 34007 ft 428 kts 284°
2026-05-03 21:23 47.90866 5.26083 34000 ft 436 kts 298°
2026-05-03 21:23 47.92808 5.22642 34000 ft 445 kts 310°
2026-05-03 21:23 47.97365 5.16347 34007 ft 446 kts 312°
2026-05-03 21:24 48.01863 5.10058 34007 ft 445 kts 311°
2026-05-03 21:24 48.06337 5.03711 33991 ft 442 kts 310°
2026-05-03 21:25 48.10774 4.97380 33989 ft 441 kts 310°
2026-05-03 21:25 48.15219 4.91083 33993 ft 438 kts 310°
2026-05-03 21:26 48.19596 4.84848 33987 ft 437 kts 310°
2026-05-03 21:26 48.23998 4.78566 33976 ft 437 kts 310°
2026-05-03 21:27 48.28417 4.72301 33978 ft 437 kts 310°
2026-05-03 21:27 48.32763 4.66072 33990 ft 429 kts 309°
2026-05-03 21:28 48.37046 4.59903 33978 ft 428 kts 309°
2026-05-03 21:28 48.41338 4.53702 33974 ft 428 kts 308°
2026-05-03 21:29 48.45606 4.47447 33969 ft 428 kts 308°
2026-05-03 21:29 48.49858 4.41269 33967 ft 428 kts 308°
2026-05-03 21:30 48.54147 4.35025 33967 ft 428 kts 308°
2026-05-03 21:30 48.58433 4.28765 33987 ft 431 kts 308°
2026-05-03 21:31 48.62739 4.22491 33963 ft 432 kts 308°
2026-05-03 21:31 48.67066 4.16187 33965 ft 432 kts 308°
2026-05-03 21:32 48.71394 4.09870 33969 ft 432 kts 308°
2026-05-03 21:32 48.75716 4.03529 33965 ft 432 kts 308°
2026-05-03 21:33 48.79988 3.97206 33959 ft 432 kts 308°
2026-05-03 21:33 48.84279 3.90846 33954 ft 432 kts 308°
2026-05-03 21:34 48.88583 3.84462 33969 ft 432 kts 308°
2026-05-03 21:34 48.92885 3.78077 33955 ft 432 kts 308°
2026-05-03 21:35 48.97149 3.71736 33964 ft 432 kts 308°
2026-05-03 21:35 49.01435 3.65320 33960 ft 432 kts 307°
2026-05-03 21:36 49.05710 3.58899 33967 ft 432 kts 308°
2026-05-03 21:36 49.09969 3.52514 33986 ft 432 kts 307°
2026-05-03 21:37 49.14267 3.46046 33962 ft 433 kts 307°
2026-05-03 21:37 49.18555 3.39561 33957 ft 433 kts 307°
2026-05-03 21:38 49.22808 3.33133 33950 ft 433 kts 307°
2026-05-03 21:38 49.27087 3.26629 33958 ft 434 kts 307°
2026-05-03 21:39 49.31367 3.20105 33948 ft 434 kts 307°
2026-05-03 21:39 49.35630 3.13604 33948 ft 434 kts 307°
2026-05-03 21:40 49.39914 3.07041 33955 ft 437 kts 306°
2026-05-03 21:40 49.44218 3.00441 33948 ft 437 kts 306°
2026-05-03 21:41 49.48517 2.93827 33947 ft 437 kts 306°
2026-05-03 21:41 49.52791 2.87228 33950 ft 439 kts 306°
2026-05-03 21:42 49.57114 2.80566 33946 ft 439 kts 306°
2026-05-03 21:42 49.61418 2.73889 33949 ft 439 kts 306°
2026-05-03 21:43 49.65725 2.67193 33964 ft 441 kts 306°
2026-05-03 21:43 49.70026 2.60488 33940 ft 437 kts 305°
2026-05-03 21:44 49.74262 2.53863 33944 ft 436 kts 306°
2026-05-03 21:44 49.78527 2.47178 33938 ft 436 kts 306°
2026-05-03 21:45 49.82791 2.40485 33938 ft 436 kts 305°
2026-05-03 21:45 49.87020 2.33820 33936 ft 436 kts 305°
2026-05-03 21:46 49.91264 2.27097 33930 ft 436 kts 305°
2026-05-03 21:46 49.95544 2.20306 33942 ft 443 kts 306°
2026-05-03 21:47 49.99880 2.13452 33934 ft 444 kts 306°
2026-05-03 21:47 50.04169 2.06637 33928 ft 438 kts 306°
2026-05-03 21:48 50.08395 1.99886 33929 ft 439 kts 306°
2026-05-03 21:48 50.12650 1.93069 33927 ft 438 kts 306°
2026-05-03 21:49 50.16898 1.86257 33928 ft 439 kts 306°
2026-05-03 21:49 50.21259 1.79599 33954 ft 443 kts 308°
2026-05-03 21:50 50.25671 1.72881 33936 ft 443 kts 308°
2026-05-03 21:50 50.30049 1.66206 33598 ft 435 kts 308°
2026-05-03 21:51 50.32204 1.62898 33327 ft 433 kts 308°
2026-05-03 21:51 50.34348 1.59611 33052 ft 431 kts 308°
2026-05-03 21:51 50.36485 1.56330 32740 ft 428 kts 308°
2026-05-03 21:51 50.38603 1.53077 32327 ft 424 kts 308°
2026-05-03 21:52 50.40675 1.49892 31851 ft 421 kts 308°
2026-05-03 21:52 50.42757 1.46684 31367 ft 419 kts 308°
2026-05-03 21:52 50.44827 1.43485 30877 ft 417 kts 308°
2026-05-03 21:52 50.46888 1.40302 30390 ft 415 kts 308°
2026-05-03 21:53 50.48931 1.37132 29935 ft 412 kts 308°
2026-05-03 21:53 50.50892 1.33880 29367 ft 409 kts 306°
2026-05-03 21:53 50.52816 1.30613 28824 ft 406 kts 306°
2026-05-03 21:53 50.54727 1.27364 28314 ft 403 kts 306°
2026-05-03 21:54 50.56622 1.24137 27838 ft 400 kts 306°
2026-05-03 21:54 50.58514 1.21027 27386 ft 398 kts 309°
2026-05-03 21:54 50.60460 1.17948 26911 ft 395 kts 309°
2026-05-03 21:54 50.62390 1.14902 26440 ft 392 kts 309°
2026-05-03 21:55 50.64307 1.11855 25977 ft 390 kts 309°
2026-05-03 21:55 50.66198 1.08818 25517 ft 388 kts 309°
2026-05-03 21:55 50.68087 1.05813 25074 ft 385 kts 310°
2026-05-03 21:55 50.69976 1.02815 24611 ft 383 kts 310°
2026-05-03 21:56 50.71847 0.99840 24141 ft 382 kts 310°
2026-05-03 21:56 50.73726 0.96869 23665 ft 381 kts 311°
2026-05-03 21:56 50.75603 0.93929 23180 ft 380 kts 311°
2026-05-03 21:56 50.77467 0.90994 22692 ft 377 kts 311°
2026-05-03 21:57 50.79286 0.88105 22211 ft 375 kts 311°
2026-05-03 21:57 50.81117 0.85187 21709 ft 373 kts 311°
2026-05-03 21:57 50.82935 0.82284 21256 ft 370 kts 311°
2026-05-03 21:57 50.84731 0.79409 20810 ft 368 kts 311°
2026-05-03 21:58 50.86516 0.76550 20356 ft 365 kts 311°
2026-05-03 21:58 50.88292 0.73698 19934 ft 362 kts 311°
2026-05-03 21:58 50.90052 0.70867 19532 ft 359 kts 311°
2026-05-03 21:58 50.91798 0.68057 19136 ft 357 kts 311°
2026-05-03 21:59 50.93539 0.65249 18741 ft 356 kts 311°
2026-05-03 21:59 50.95274 0.62448 18340 ft 356 kts 311°
2026-05-03 21:59 50.96987 0.59688 17925 ft 355 kts 311°
2026-05-03 21:59 50.98720 0.56895 17376 ft 355 kts 311°
2026-05-03 22:00 51.00449 0.54097 16765 ft 355 kts 311°
2026-05-03 22:00 51.02172 0.51298 16183 ft 354 kts 311°
2026-05-03 22:00 51.03879 0.48495 15651 ft 352 kts 311°
2026-05-03 22:00 51.05580 0.45709 15128 ft 350 kts 311°
2026-05-03 22:01 51.07290 0.42964 14623 ft 349 kts 313°
2026-05-03 22:01 51.09031 0.40292 14113 ft 347 kts 314°
2026-05-03 22:01 51.10764 0.37644 13627 ft 344 kts 314°
2026-05-03 22:01 51.11907 0.35900 13271 ft 343 kts 314°
2026-05-03 22:02 51.14170 0.32455 12622 ft 338 kts 314°
2026-05-03 22:02 51.15873 0.29896 12142 ft 335 kts 314°
2026-05-03 22:02 51.17557 0.27351 11646 ft 332 kts 314°
2026-05-03 22:02 51.19222 0.24817 11197 ft 329 kts 314°
2026-05-03 22:03 51.20848 0.22334 10920 ft 318 kts 314°
2026-05-03 22:03 51.22404 0.19943 10712 ft 305 kts 314°
2026-05-03 22:03 51.23404 0.18410 10587 ft 298 kts 314°
2026-05-03 22:03 51.24889 0.16129 10229 ft 294 kts 314°
2026-05-03 22:04 51.26359 0.13868 9803 ft 293 kts 314°
2026-05-03 22:04 51.28275 0.10915 9436 ft 283 kts 314°
2026-05-03 22:04 51.29661 0.08780 9279 ft 272 kts 314°
2026-05-03 22:04 51.30995 0.06721 9134 ft 261 kts 314°
2026-05-03 22:05 51.31849 0.05400 9004 ft 254 kts 314°
2026-05-03 22:05 51.33110 0.03458 8670 ft 251 kts 316°
2026-05-03 22:05 51.34607 0.02070 8305 ft 253 kts 343°
2026-05-03 22:05 51.36360 0.01785 8032 ft 254 kts 359°
2026-05-03 22:06 51.38124 0.01844 7789 ft 253 kts
2026-05-03 22:06 51.39878 0.01938 7557 ft 252 kts
2026-05-03 22:06 51.41629 0.02035 7335 ft 251 kts
2026-05-03 22:06 51.43356 0.01833 7103 ft 248 kts 342°
2026-05-03 22:07 51.44852 0.00545 6877 ft 244 kts 315°
2026-05-03 22:07 51.45822 -0.01619 6624 ft 237 kts 290°
2026-05-03 22:07 51.46240 -0.04124 6366 ft 228 kts 278°
2026-05-03 22:07 51.46517 -0.06564 6073 ft 222 kts 279°
2026-05-03 22:08 51.46790 -0.08919 5780 ft 209 kts 279°
2026-05-03 22:08 51.47068 -0.11202 5346 ft 208 kts 280°
2026-05-03 22:08 51.47362 -0.13490 4847 ft 210 kts 281°
2026-05-03 22:08 51.47666 -0.15801 4304 ft 214 kts 280°
2026-05-03 22:09 51.47796 -0.18190 3748 ft 216 kts 269°
2026-05-03 22:09 51.47791 -0.20583 3218 ft 211 kts 269°
2026-05-03 22:09 51.47786 -0.22890 2712 ft 203 kts 270°
2026-05-03 22:10 51.47772 -0.27155 2026 ft 176 kts 270°
2026-05-03 22:10 51.47773 -0.29050 1806 ft 164 kts 270°
2026-05-03 22:10 51.47772 -0.30798 1592 ft 144 kts 269°
2026-05-03 22:10 51.47764 -0.32307 1385 ft 135 kts 269°
2026-05-03 22:11 51.47764 -0.33803 1210 ft 134 kts 270°
2026-05-03 22:11 51.47763 -0.35304 1045 ft 135 kts 269°
2026-05-03 22:11 51.47760 -0.36804 903 ft 134 kts 269°
2026-05-03 22:11 51.47757 -0.38300 741 ft 134 kts 268°
2026-05-03 22:12 51.47755 -0.39785 551 ft 133 kts 269°
2026-05-03 22:12 51.47754 -0.41255 373 ft 132 kts 268°
2026-05-03 22:12 51.47762 -0.42720 207 ft 130 kts 269°
2026-05-03 22:12 51.47766 -0.44153 96 ft 125 kts 269°
2026-05-03 22:13 51.47761 -0.45347 91 ft 84 kts 267°
2026-05-03 22:13 51.47759 -0.46085 91 ft 57 kts 269°
2026-05-03 22:13 51.47753 -0.46464 95 ft 25 kts 256°
2026-05-03 22:13 51.47701 -0.46726 95 ft 14 kts 240°
2026-05-03 22:14 51.47655 -0.46852 93 ft 8 kts 224°
2026-05-03 22:14 51.47599 -0.46900 92 ft 10 kts 214°
2026-05-03 22:14 51.47582 -0.47018 92 ft 13 kts 270°
2026-05-03 22:14 51.47583 -0.47171 93 ft 15 kts 270°
2026-05-03 22:15 51.47583 -0.47349 93 ft 17 kts 269°
2026-05-03 22:15 51.47582 -0.47545 93 ft 19 kts 269°
2026-05-03 22:15 51.47581 -0.47750 95 ft 17 kts 269°
2026-05-03 22:15 51.47580 -0.47936 94 ft 18 kts 269°
2026-05-03 22:16 51.47579 -0.48116 93 ft 17 kts 269°
2026-05-03 22:16 51.47578 -0.48313 92 ft 17 kts 269°
2026-05-03 22:16 51.47573 -0.48461 92 ft 8 kts 238°
2026-05-03 22:16 51.47514 -0.48479 92 ft 10 kts 178°
2026-05-03 22:17 51.47435 -0.48475 91 ft 12 kts 179°
2026-05-03 22:17 51.47354 -0.48475 91 ft 12 kts 180°
2026-05-03 22:17 51.47270 -0.48473 91 ft 11 kts 179°
2026-05-03 22:17 51.47252 -0.48473 91 ft 0 kts 181°
2026-05-03 22:18 51.47251 -0.48473 91 ft 1 kts 181°
2026-05-03 22:18 51.47238 -0.48482 91 ft 3 kts 216°
2026-05-03 22:18 51.47233 -0.48531 91 ft 6 kts 269°
2026-05-03 22:19 51.47233 -0.48577 91 ft 0 kts 269°
2026-05-03 22:19 51.47233 -0.48578 91 ft 0 kts 269°